Lexington Weather

Lexington, Massachusetts, USA

40°F
1/23/2020 11:39am 
  • Lexington Conditions: Clear
  • Temperature: 39.9°F / 4.4°CWarmer 5.7°F than last hour.
  • Dew Point: 21.7°FIncreased 0.3°Fsince last hour.
  • Relative Humidity: 48%Decreased 11.0% since last hour.
  • Wind: Calm, 10-min avg: Calm, gust: 1 mph
  • Barometer: 30.32 inFalling 0.02  inHg/hr Falling Slowly
  • Visibility: 10 miles
  • Rain Today: 0.00 in
  •   

Regional Weather Roundup
for Boston / Norton, MA

        
000
ASUS41 KBOX 221000
RWRBOX

REGIONAL WEATHER ROUNDUP
NATIONAL WEATHER SERVICE BOSTON/NORTON MA
500 AM EST WED JAN 22 2020

NOTE:  "FAIR" INDICATES FEW OR NO CLOUDS BELOW 12,000 FEET WITH NO 
SIGNIFICANT WEATHER AND/OR OBSTRUCTIONS TO VISIBILITY.

MAZALL-221100-
EASTERN MASSACHUSETTS
  
CITY           SKY/WX    TMP DP  RH WIND       PRES   REMARKS
BOSTON         FAIR      23   6  48 W3        30.40S                  
BEVERLY        FAIR      12   2  64 N3        30.38S                  
LAWRENCE       FAIR      11   3  70 CALM      30.40S                  
BEDFORD        FAIR       6   1  80 CALM      30.38S                  
BLUE HILL        N/A     17   3  54 NW7       30.34S WCI   8          
NORWOOD        FAIR       8   1  73 CALM      30.40S                  
MARSHFIELD     NOT AVBL                                               
PLYMOUTH       FAIR      10   7  87 CALM      30.39S                  
TAUNTON        FAIR       6   2  83 CALM      30.39F                  
NEW BEDFORD    FAIR      10   7  87 CALM      30.39F                  
$$

MAZALL-221100-
CAPE COD AND THE ISLANDS
  
CITY           SKY/WX    TMP DP  RH WIND       PRES   REMARKS
FALMOUTH       CLEAR     12   5  73 CALM      30.39S                  
HYANNIS        NOT AVBL                                               
CHATHAM        FAIR      18  13  80 W3        30.40S                  
PROVINCETOWN   FAIR      19  13  77 CALM      30.40S                  
NANTUCKET      FAIR      17  10  74 CALM      30.39R                  
MARTHAS VNYRD  FAIR      10   3  73 CALM      30.40S                  
$$
 
MAZALL-221100-
CENTRAL AND WESTERN MASSACHUSETTS
  
CITY           SKY/WX    TMP DP  RH WIND       PRES   REMARKS
WORCESTER      FAIR      15   4  61 W5        30.31F WCI   8          
FITCHBURG      FAIR       7   1  76 CALM      30.37F                  
ORANGE         FAIR       0  -6  76 CALM      30.39S                  
SPRINGFIELD    FAIR       1  -4  81 CALM      30.39S                  
WESTFIELD      NOT AVBL                                               
NORTH ADAMS    CLOUDY    22  13  68 SW7       30.37S WCI  13          
PITTSFIELD     CLOUDY    19  11  70 W5        30.31S WCI  12          
$$
 
RIZALL-221100-
RHODE ISLAND
  
CITY           SKY/WX    TMP DP  RH WIND       PRES   REMARKS
PROVIDENCE     FAIR      15   7  70 W5        30.40S WCI   8          
NEWPORT        FAIR      17   8  67 NE3       30.38F                  
BLOCK ISLAND   FAIR      22  12  65 N5        30.40F WCI  16          
SMITHFIELD     FAIR      13   3  64 CALM      30.37S                  
WESTERLY       FAIR      16   9  74 N3        30.41F                  
$$
 
CTZALL-221100-
CONNECTICUT
  
CITY           SKY/WX    TMP DP  RH WIND       PRES   REMARKS
BRADLEY INTL   FAIR       6   1  80 CALM      30.40S                  
HARTFORD       FAIR      11   7  84 CALM      30.42S                  
BRIDGEPORT     FAIR      18  10  71 N5        30.42S WCI  11          
DANBURY        FAIR       9   4  80 CALM      30.40S                  
GROTON         NOT AVBL                                               
NEW HAVEN      FAIR      14   9  80 CALM      30.41S                  
CHESTER        NOT AVBL                                               
MERIDEN        FAIR      11   6  81 W8        30.41S WCI  -1          
WILLIMANTIC    FAIR       6   2  83 CALM      30.42S                  
OXFORD         FAIR      13   7  77 CALM      30.37S                  
$$

MEZ002-015-021-024-NHZ003-005-008-011-012-014-VTZ005-008-221100-
NORTHERN NEW ENGLAND
  
CITY           SKY/WX    TMP DP  RH WIND       PRES   REMARKS
PORTLAND ME    CLOUDY    13   4  67 W6        30.37F WCI   4          
BANGOR ME      FLURRIES  14   9  80 CALM      30.36F                  
CONCORD NH     FAIR       6   2  83 CALM      30.37S                  
MANCHESTER NH  FAIR      10   3  73 CALM      30.36S                  
NASHUA NH      FAIR       6   3  87 CALM      30.38F                  
PORTSMOUTH NH  PTCLDY    13   2  60 W5        30.36F WCI   6          
JAFFREY NH     FAIR       2  -2  83 CALM      30.32S                  
KEENE NH       FAIR      -1  -4  87 CALM      30.39S                  
BURLINGTON VT  CLOUDY    24  14  65 S6        30.34S WCI  17          
MT. WASHINGTON MOCLDY     9   3  78 W40         N/A  WCI -17          
$$

NYZ052-076-221100-
EASTERN NEW YORK
  
CITY           SKY/WX    TMP DP  RH WIND       PRES   REMARKS
ALBANY         CLOUDY    20  10  65 CALM      30.41S                  
NEW YORK CITY  FAIR      27  12  53 CALM      30.42S                  
$$
 
ANZALL-221100-
MARINE OBSERVATIONS
  
STATION/POSITION TIME  TEMP    WIND        PRES    VSBY  WAVE
                       AIR SEA DIR/SP/G                  HT/PER
                 (UTC) (F)     (DEG/KT/KT) (MB)    (MI)  (FT/S)
BOSTON BUOY      0850   28 42  300/ 10/ 14 1029.0          1/10
BUZZARDS BAY     0900   25     320/  9/ 10 1030.0R
NANTUCKET SOUND  NOT AVBL
MASS BAY-STELLWA 0904   26 41  320/  8/ 10 1027.2F  1 7/8  2/11
ISLE OF SHOALS   0900   22     270/  9/ 10 1028.6F
S OF BLOCK IS    0930      45                N/A           2/ 9
$$

......................KEY.........................
  SKY/WX - SKY CONDITION/PRESENT WEATHER
  TMP    - TEMPERATURE IN FAHRENHEIT
  DWPT   - DEWPOINT IN FAHRENHEIT
  RH     - RELATIVE HUMIDITY IN PERCENT
  WIND   - DIRECTION AND SPEED IN MPH
  PRES   - MEAN SEA LEVEL PRESSURE IN INCHES OF HG
  WCI    - WIND CHILL INDEX
  VSB    - VISIBILITY IN MILES
  HX     - HEAT INDEX
  TC     - TEMPERATURE IN CELSIUS
  VRB    - VARIABLE WIND DIRECTION
  N/A    - NOT AVAILABLE
  
      

Other recent Regional Weather Roundups

Thu Jan 23, 11:10am

Thu Jan 23, 11:00am

Thu Jan 23, 10:10am

Thu Jan 23, 10:00am

Thu Jan 23, 9:10am

Thu Jan 23, 9:00am

Thu Jan 23, 8:10am

Thu Jan 23, 8:00am

Thu Jan 23, 7:10am

Thu Jan 23, 7:01am

Thu Jan 23, 6:10am

Thu Jan 23, 6:00am

Thu Jan 23, 5:10am

Thu Jan 23, 5:00am

Thu Jan 23, 4:10am

Thu Jan 23, 4:01am

Thu Jan 23, 3:10am

Thu Jan 23, 3:00am

Thu Jan 23, 2:10am

Thu Jan 23, 2:00am

Thu Jan 23, 1:10am

Thu Jan 23, 1:00am

Thu Jan 23, 12:10am

Thu Jan 23, 12:00am

Wed Jan 22, 11:10pm

Wed Jan 22, 11:01pm

Wed Jan 22, 10:10pm

Wed Jan 22, 10:00pm

Wed Jan 22, 9:10pm

Wed Jan 22, 9:00pm

Wed Jan 22, 8:10pm

Wed Jan 22, 8:01pm

Wed Jan 22, 7:10pm

Wed Jan 22, 7:00pm

Wed Jan 22, 6:10pm

Wed Jan 22, 6:01pm

Wed Jan 22, 5:10pm

Wed Jan 22, 5:00pm

Wed Jan 22, 4:10pm

Wed Jan 22, 4:00pm

Wed Jan 22, 3:10pm

Wed Jan 22, 3:00pm

Wed Jan 22, 2:10pm

Wed Jan 22, 2:00pm

Wed Jan 22, 1:10pm

Wed Jan 22, 1:00pm

Wed Jan 22, 12:10pm

Wed Jan 22, 12:00pm

Wed Jan 22, 11:10am

Wed Jan 22, 11:00am

Wed Jan 22, 10:10am

Wed Jan 22, 10:01am

Wed Jan 22, 9:10am

Wed Jan 22, 9:00am

Wed Jan 22, 8:10am

Wed Jan 22, 8:00am

Wed Jan 22, 7:10am

Wed Jan 22, 7:00am

Wed Jan 22, 6:10am

Wed Jan 22, 6:00am

Wed Jan 22, 5:10am

Wed Jan 22, 4:10am

Wed Jan 22, 4:00am

Wed Jan 22, 3:10am

Wed Jan 22, 3:01am

Wed Jan 22, 2:10am

Wed Jan 22, 2:00am

Wed Jan 22, 1:10am

Wed Jan 22, 1:00am

Wed Jan 22, 12:10am

Wed Jan 22, 12:00am

Tue Jan 21, 11:10pm

Tue Jan 21, 11:00pm

Tue Jan 21, 10:10pm

Tue Jan 21, 10:00pm

Tue Jan 21, 9:10pm

Tue Jan 21, 9:01pm

Tue Jan 21, 8:10pm

Tue Jan 21, 8:00pm

Tue Jan 21, 7:10pm

Tue Jan 21, 7:00pm

Tue Jan 21, 6:10pm

Tue Jan 21, 6:01pm

Tue Jan 21, 5:10pm

Tue Jan 21, 5:00pm

Tue Jan 21, 4:10pm

Tue Jan 21, 4:00pm

Tue Jan 21, 3:10pm

Tue Jan 21, 3:01pm

Tue Jan 21, 2:10pm

Tue Jan 21, 2:00pm

Tue Jan 21, 1:10pm

Tue Jan 21, 1:00pm

Tue Jan 21, 12:10pm

Tue Jan 21, 12:00pm

Tue Jan 21, 11:10am

Tue Jan 21, 11:00am

Tue Jan 21, 10:10am

Tue Jan 21, 10:00am

Tue Jan 21, 9:10am

Tue Jan 21, 9:00am

Tue Jan 21, 8:10am

Tue Jan 21, 8:00am

Tue Jan 21, 7:10am

Tue Jan 21, 7:00am

Tue Jan 21, 6:10am

Tue Jan 21, 6:00am

Tue Jan 21, 5:10am

Tue Jan 21, 5:00am

Tue Jan 21, 4:10am

Tue Jan 21, 4:00am

Tue Jan 21, 3:10am

Tue Jan 21, 3:00am

Tue Jan 21, 2:10am

Tue Jan 21, 2:01am

Tue Jan 21, 1:10am

Tue Jan 21, 1:00am

Tue Jan 21, 12:10am

Tue Jan 21, 12:00am

Mon Jan 20, 11:10pm

Mon Jan 20, 11:00pm

Mon Jan 20, 10:10pm

Mon Jan 20, 10:00pm

Mon Jan 20, 9:10pm

Mon Jan 20, 9:00pm

Mon Jan 20, 8:10pm

Mon Jan 20, 8:00pm

Mon Jan 20, 7:10pm

Mon Jan 20, 7:00pm

Mon Jan 20, 6:10pm

Mon Jan 20, 6:00pm

Mon Jan 20, 5:10pm

Mon Jan 20, 5:00pm

Mon Jan 20, 4:10pm

Mon Jan 20, 4:01pm

Mon Jan 20, 3:10pm

Mon Jan 20, 3:00pm

Mon Jan 20, 2:10pm

Mon Jan 20, 2:00pm

Mon Jan 20, 1:10pm

Mon Jan 20, 1:00pm

Mon Jan 20, 12:10pm

Mon Jan 20, 12:00pm

Meta data:

ID: 47f1a170-0431-4ad4-bc39-37247c7b9030
Link: https://api.weather.gov/products/47f1a170-0431-4ad4-bc39-37247c7b9030